| time (UTC) | temp F | wind direction | speed knots | gust knots | rain 1hr in | rain 24hr in | rain mn in | humidity % | barometer mb |
| 20260507001622 | 73 | 209 | 5.2 | 7.0 | 0.00 | 0.00 | 0.00 | 58 | 1018.1 |
| 20260507000624 | 73 | 190 | 2.6 | 13.0 | 0.00 | 0.00 | 0.00 | 61 | 1018.3 |
| 20260506235624 | 73 | 268 | 6.1 | 10.4 | 0.00 | 0.00 | 0.00 | 58 | 1018.3 |
| 20260506234634 | 73 | 266 | 6.1 | 9.6 | 0.00 | 0.00 | 0.00 | 58 | 1018.3 |
| 20260506233619 | 74 | 281 | 4.3 | 9.6 | 0.00 | 0.00 | 0.00 | 58 | 1018.3 |
| 20260506232622 | 75 | 221 | 4.3 | 9.6 | 0.00 | 0.00 | 0.00 | 58 | 1018.2 |
| 20260506231625 | 75 | 211 | 5.2 | 7.8 | 0.00 | 0.00 | 0.00 | 57 | 1018.2 |
| 20260506230635 | 74 | 263 | 5.2 | 9.6 | 0.00 | 0.00 | 0.00 | 57 | 1018.4 |
| 20260506225632 | 74 | 301 | 3.5 | 12.2 | 0.00 | 0.00 | 0.00 | 56 | 1018.4 |
| 20260506224634 | 75 | 259 | 3.5 | 11.3 | 0.00 | 0.00 | 0.00 | 55 | 1018.4 |
| 20260506223617 | 76 | 159 | 2.6 | 9.6 | 0.00 | 0.00 | 0.00 | 56 | 1018.7 |
| 20260506222625 | 75 | 255 | 5.2 | 8.7 | 0.00 | 0.00 | 0.00 | 56 | 1018.9 |
| 20260506221628 | 75 | 292 | 4.3 | 9.6 | 0.00 | 0.00 | 0.00 | 55 | 1018.9 |
| 20260506220631 | 75 | 233 | 6.1 | 10.4 | 0.00 | 0.00 | 0.00 | 57 | 1018.9 |
| 20260506215650 | 75 | 245 | 3.5 | 7.0 | 0.00 | 0.00 | 0.00 | 58 | 1019.1 |
| 20260506214631 | 75 | 268 | 6.1 | 10.4 | 0.00 | 0.00 | 0.00 | 56 | 1019.1 |
| 20260506213641 | 75 | 233 | 6.1 | 10.4 | 0.00 | 0.00 | 0.00 | 57 | 1019.2 |
| 20260506212625 | 74 | 274 | 4.3 | 8.7 | 0.00 | 0.00 | 0.00 | 57 | 1019.3 |
| 20260506211629 | 75 | 235 | 4.3 | 10.4 | 0.00 | 0.00 | 0.00 | 58 | 1019.3 |
| 20260506210632 | 74 | 211 | 4.3 | 9.6 | 0.00 | 0.00 | 0.00 | 59 | 1019.4 |
| 20260506205636 | 74 | 327 | 2.6 | 10.4 | 0.00 | 0.00 | 0.00 | 58 | 1019.4 |
| 20260506204638 | 75 | 215 | 5.2 | 11.3 | 0.00 | 0.00 | 0.00 | 56 | 1019.4 |
| 20260506203622 | 74 | 242 | 2.6 | 7.0 | 0.00 | 0.00 | 0.00 | 57 | 1019.5 |
| 20260506202626 | 73 | 199 | 3.5 | 7.8 | 0.00 | 0.00 | 0.00 | 58 | 1019.9 |
| 20260506201627 | 72 | 192 | 2.6 | 7.8 | 0.00 | 0.00 | 0.00 | 60 | 1019.9 |
| 20260506200635 | 72 | 272 | 5.2 | 8.7 | 0.00 | 0.00 | 0.00 | 58 | 1020.0 |
| 20260506195632 | 72 | 256 | 5.2 | 9.6 | 0.00 | 0.00 | 0.00 | 59 | 1020.1 |
| 20260506194635 | 72 | 271 | 2.6 | 9.6 | 0.00 | 0.00 | 0.00 | 59 | 1020.1 |
| 20260506193616 | 72 | 271 | 2.6 | 7.8 | 0.00 | 0.00 | 0.00 | 60 | 1020.2 |
| 20260506192643 | 72 | 215 | 4.3 | 9.6 | 0.00 | 0.00 | 0.00 | 60 | 1020.4 |
| 20260506191626 | 73 | 220 | 4.3 | 8.7 | 0.00 | 0.00 | 0.00 | 58 | 1020.4 |
| 20260506190629 | 72 | 267 | 4.3 | 7.8 | 0.00 | 0.00 | 0.00 | 61 | 1020.4 |
| 20260506185630 | 71 | 231 | 2.6 | 7.8 | 0.00 | 0.00 | 0.00 | 60 | 1020.4 |
| 20260506184616 | 71 | 250 | 2.6 | 6.1 | 0.00 | 0.00 | 0.00 | 61 | 1020.4 |
| 20260506183618 | 70 | 290 | 0.9 | 7.0 | 0.00 | 0.00 | 0.00 | 62 | 1020.5 |
| 20260506182622 | 69 | 200 | 4.3 | 6.1 | 0.00 | 0.00 | 0.00 | 64 | 1020.5 |
| 20260506181625 | 69 | 279 | 2.6 | 7.0 | 0.00 | 0.00 | 0.00 | 63 | 1020.5 |
| 20260506180648 | 69 | 153 | 1.7 | 7.0 | 0.00 | 0.00 | 0.00 | 59 | 1020.5 |
| 20260506175630 | 69 | 99 | 3.5 | 5.2 | 0.00 | 0.00 | 0.00 | 64 | 1020.5 |
| 20260506174636 | 68 | 217 | 2.6 | 6.1 | 0.00 | 0.00 | 0.00 | 65 | 1020.5 |
| 20260506173621 | 68 | 198 | 3.5 | 8.7 | 0.00 | 0.00 | 0.00 | 64 | 1020.5 |
| 20260506172623 | 67 | 192 | 3.5 | 6.1 | 0.00 | 0.00 | 0.00 | 66 | 1020.5 |
| 20260506171652 | 68 | 223 | 3.5 | 5.2 | 0.00 | 0.00 | 0.00 | 65 | 1020.5 |
| 20260506170634 | 67 | 209 | 2.6 | 6.1 | 0.00 | 0.00 | 0.00 | 68 | 1020.6 |
| 20260506165618 | 66 | 132 | 3.5 | 6.1 | 0.00 | 0.00 | 0.00 | 69 | 1020.6 |
| 20260506164620 | 63 | 200 | 1.7 | 6.1 | 0.00 | 0.00 | 0.00 | 70 | 1020.6 |
| 20260506163622 | 62 | 222 | 2.6 | 4.3 | 0.00 | 0.00 | 0.00 | 72 | 1020.6 |
| 20260506162630 | 60 | 192 | 0.9 | 1.7 | 0.00 | 0.00 | 0.00 | 72 | 1020.6 |
| 20260506161653 | 60 | 239 | 0.9 | 2.6 | 0.00 | 0.00 | 0.00 | 73 | 1020.6 |
| 20260506160634 | 60 | 271 | 1.7 | 2.6 | 0.00 | 0.00 | 0.00 | 73 | 1020.6 |
| 20260506155631 | 59 | 196 | 0.0 | 3.5 | 0.00 | 0.01 | 0.00 | 74 | 1020.6 |
| 20260506154616 | 59 | 203 | 1.7 | 3.5 | 0.00 | 0.01 | 0.00 | 76 | 1020.6 |
| 20260506153643 | 59 | 219 | 1.7 | 4.3 | 0.00 | 0.01 | 0.00 | 75 | 1020.6 |
| 20260506152629 | 58 | 172 | 0.9 | 1.7 | 0.00 | 0.01 | 0.00 | 76 | 1020.5 |
| 20260506151650 | 58 | 172 | 0.9 | 3.5 | 0.00 | 0.01 | 0.00 | 75 | 1020.5 |
| 20260506150614 | 58 | 22 | 0.9 | 1.7 | 0.00 | 0.01 | 0.00 | 77 | 1020.5 |
| 20260506145619 | 57 | 272 | 0.9 | 0.9 | 0.00 | 0.01 | 0.00 | 78 | 1020.5 |
| 20260506144622 | 57 | 272 | 0.9 | 1.7 | 0.00 | 0.01 | 0.00 | 80 | 1020.5 |
| 20260506143627 | 56 | 276 | 0.0 | 0.0 | 0.00 | 0.01 | 0.00 | 82 | 1020.5 |
| 20260506142631 | 54 | 276 | 0.0 | 0.0 | 0.00 | 0.01 | 0.00 | 82 | 1020.3 |
| 20260506141617 | 53 | 277 | 0.0 | 0.0 | 0.00 | 0.01 | 0.00 | 81 | 1020.3 |
| 20260506140622 | 53 | 277 | 0.0 | 0.0 | 0.00 | 0.01 | 0.00 | 81 | 1020.0 |
| 20260506135643 | 53 | 277 | 0.0 | 0.0 | 0.00 | 0.01 | 0.00 | 81 | 1019.9 |
| 20260506134624 | 54 | 277 | 0.0 | 0.9 | 0.00 | 0.01 | 0.00 | 80 | 1019.9 |
| 20260506133629 | 54 | 277 | 0.9 | 1.7 | 0.00 | 0.01 | 0.00 | 80 | 1019.9 |
| 20260506132635 | 54 | 277 | 0.0 | 1.7 | 0.00 | 0.01 | 0.00 | 80 | 1019.8 |
| 20260506131617 | 54 | 277 | 0.0 | 0.0 | 0.00 | 0.01 | 0.00 | 80 | 1019.8 |
| 20260506130622 | 54 | 277 | 0.0 | 2.6 | 0.00 | 0.01 | 0.00 | 80 | 1019.5 |
| 20260506125619 | 54 | 277 | 0.9 | 1.7 | 0.00 | 0.01 | 0.00 | 79 | 1019.5 |
| 20260506124646 | 54 | 277 | 0.0 | 0.9 | 0.00 | 0.01 | 0.00 | 79 | 1019.5 |
| 20260506123630 | 54 | 277 | 0.9 | 3.5 | 0.00 | 0.01 | 0.00 | 79 | 1019.5 |
| 20260506122633 | 54 | 267 | 0.9 | 3.5 | 0.00 | 0.01 | 0.00 | 79 | 1019.4 |
| 20260506121635 | 54 | 281 | 0.9 | 2.6 | 0.00 | 0.01 | 0.00 | 79 | 1019.4 |
| 20260506120622 | 54 | 290 | 0.0 | 1.7 | 0.00 | 0.01 | 0.00 | 79 | 1019.5 |
| 20260506115618 | 54 | 285 | 0.0 | 2.6 | 0.00 | 0.01 | 0.00 | 80 | 1019.4 |
| 20260506114641 | 54 | 296 | 0.9 | 1.7 | 0.00 | 0.01 | 0.00 | 80 | 1019.4 |
| 20260506113623 | 54 | 277 | 0.9 | 2.6 | 0.00 | 0.01 | 0.00 | 80 | 1019.2 |
| 20260506112625 | 54 | 263 | 0.9 | 2.6 | 0.00 | 0.01 | 0.00 | 80 | 1019.0 |
| 20260506111634 | 54 | 261 | 1.7 | 3.5 | 0.00 | 0.01 | 0.00 | 80 | 1019.0 |
| 20260506110657 | 54 | 274 | 0.9 | 3.5 | 0.00 | 0.01 | 0.00 | 80 | 1019.0 |
| 20260506105634 | 54 | 290 | 0.9 | 3.5 | 0.00 | 0.01 | 0.00 | 80 | 1019.0 |
| 20260506104616 | 54 | 277 | 1.7 | 2.6 | 0.00 | 0.01 | 0.00 | 80 | 1019.0 |
| 20260506103623 | 54 | 288 | 0.0 | 3.5 | 0.00 | 0.01 | 0.00 | 80 | 1019.0 |
| 20260506102629 | 54 | 339 | 0.0 | 2.6 | 0.00 | 0.01 | 0.00 | 80 | 1018.9 |
| 20260506101614 | 54 | 269 | 1.7 | 2.6 | 0.00 | 0.01 | 0.00 | 80 | 1018.9 |
| 20260506100639 | 54 | 308 | 0.9 | 3.5 | 0.00 | 0.01 | 0.00 | 81 | 1018.9 |
| 20260506095623 | 54 | 287 | 0.0 | 1.7 | 0.00 | 0.02 | 0.00 | 81 | 1018.9 |
| 20260506094630 | 53 | 327 | 0.9 | 2.6 | 0.00 | 0.02 | 0.00 | 81 | 1018.9 |
| 20260506093632 | 53 | 271 | 1.7 | 2.6 | 0.00 | 0.02 | 0.00 | 81 | 1018.9 |
| 20260506092618 | 53 | 269 | 0.9 | 2.6 | 0.00 | 0.02 | 0.00 | 81 | 1018.9 |
| 20260506091641 | 53 | 318 | 0.0 | 2.6 | 0.00 | 0.02 | 0.00 | 81 | 1018.9 |
| 20260506090628 | 54 | 269 | 0.9 | 2.6 | 0.00 | 0.02 | 0.00 | 81 | 1018.9 |
| 20260506085632 | 54 | 275 | 0.9 | 1.7 | 0.00 | 0.06 | 0.00 | 81 | 1018.9 |
| 20260506084639 | 54 | 275 | 0.0 | 2.6 | 0.00 | 0.06 | 0.00 | 81 | 1018.9 |
| 20260506083621 | 54 | 263 | 1.7 | 2.6 | 0.00 | 0.06 | 0.00 | 81 | 1018.9 |
| 20260506082643 | 54 | 263 | 1.7 | 3.5 | 0.00 | 0.06 | 0.00 | 81 | 1019.0 |
| 20260506081631 | 54 | 306 | 0.9 | 3.5 | 0.00 | 0.06 | 0.00 | 81 | 1019.0 |
| 20260506080634 | 54 | 310 | 0.0 | 2.6 | 0.00 | 0.06 | 0.00 | 81 | 1019.0 |
| 20260506072642 | 53 | 276 | 1.7 | 4.3 | 0.00 | 0.09 | 0.06 | 81 | 1018.6 |
| 20260506071624 | 53 | 265 | 2.6 | 5.2 | 0.00 | 0.09 | 0.06 | 82 | 1018.6 |
| 20260506070647 | 53 | 257 | 3.5 | 5.2 | 0.00 | 0.09 | 0.06 | 82 | 1018.5 |
| 20260506061621 | 53 | 263 | 2.6 | 3.5 | 0.00 | 0.10 | 0.06 | 80 | 1018.3 |
| 20260506060630 | 54 | 292 | 1.7 | 2.6 | 0.00 | 0.10 | 0.06 | 80 | 1018.4 |
| 20260506050626 | 55 | 242 | 3.5 | 7.0 | 0.00 | 0.11 | 0.06 | 78 | 1017.9 |
| 20260506044628 | 55 | 293 | 2.6 | 6.1 | 0.00 | 0.11 | 0.06 | 78 | 1017.8 |
| 20260506043615 | 55 | 269 | 3.5 | 7.0 | 0.00 | 0.11 | 0.06 | 78 | 1017.5 |
| 20260506042620 | 55 | 229 | 2.6 | 6.1 | 0.00 | 0.11 | 0.06 | 78 | 1017.4 |
| 20260506041622 | 56 | 228 | 2.6 | 3.5 | 0.00 | 0.11 | 0.06 | 78 | 1017.4 |
| 20260506040629 | 56 | 232 | 2.6 | 4.3 | 0.00 | 0.11 | 0.06 | 78 | 1017.3 |
| 20260506035647 | 56 | 220 | 3.5 | 6.1 | 0.00 | 0.11 | 0.06 | 78 | 1017.1 |
| 20260506034628 | 56 | 222 | 2.6 | 6.1 | 0.00 | 0.11 | 0.06 | 77 | 1017.1 |
| 20260506033631 | 56 | 226 | 2.6 | 7.0 | 0.00 | 0.11 | 0.06 | 77 | 1016.8 |
| 20260506032654 | 56 | 219 | 2.6 | 5.2 | 0.00 | 0.11 | 0.06 | 77 | 1016.7 |
| 20260506031619 | 57 | 221 | 4.3 | 8.7 | 0.00 | 0.11 | 0.06 | 76 | 1016.7 |
| 20260506030642 | 57 | 226 | 2.6 | 7.8 | 0.00 | 0.11 | 0.06 | 76 | 1016.3 |
| 20260506025617 | 57 | 229 | 3.5 | 6.1 | 0.00 | 0.11 | 0.06 | 75 | 1016.4 |
| 20260506024623 | 58 | 264 | 3.5 | 6.1 | 0.00 | 0.11 | 0.06 | 74 | 1016.4 |
| 20260506023630 | 58 | 236 | 4.3 | 7.8 | 0.00 | 0.11 | 0.06 | 74 | 1016.3 |
| 20260506022617 | 58 | 238 | 3.5 | 8.7 | 0.00 | 0.11 | 0.06 | 74 | 1016.2 |
| 20260506021619 | 59 | 216 | 6.1 | 9.6 | 0.00 | 0.11 | 0.06 | 73 | 1016.2 |
| 20260506020621 | 59 | 234 | 4.3 | 8.7 | 0.00 | 0.11 | 0.06 | 73 | 1016.1 |
| 20260506015620 | 59 | 202 | 5.2 | 7.8 | 0.00 | 0.11 | 0.06 | 73 | 1015.9 |
| 20260506014627 | 60 | 211 | 4.3 | 8.7 | 0.00 | 0.11 | 0.06 | 73 | 1015.9 |
| 20260506013632 | 60 | 234 | 3.5 | 8.7 | 0.00 | 0.11 | 0.06 | 72 | 1015.9 |
| 20260506012654 | 60 | 221 | 4.3 | 7.0 | 0.00 | 0.11 | 0.06 | 72 | 1016.0 |
| 20260506011656 | 60 | 252 | 5.2 | 8.7 | 0.00 | 0.11 | 0.06 | 72 | 1016.0 |
| 20260506010657 | 61 | 227 | 5.2 | 8.7 | 0.00 | 0.11 | 0.06 | 72 | 1015.9 |
| 20260506005619 | 61 | 222 | 4.3 | 8.7 | 0.00 | 0.11 | 0.06 | 71 | 1015.8 |
| 20260506004621 | 61 | 277 | 4.3 | 8.7 | 0.00 | 0.11 | 0.06 | 72 | 1015.8 |
| 20260506003623 | 61 | 217 | 6.1 | 7.8 | 0.00 | 0.11 | 0.06 | 72 | 1015.8 |
| 20260506002626 | 61 | 225 | 4.3 | 7.0 | 0.00 | 0.11 | 0.06 | 71 | 1015.7 |